Change the Weather History Date:

Sunday, June 16, 2013

  Actual Average Record
Temperature  
Mean Temperature 75 °F 75 °F  
Max Temperature 83 °F 82 °F 89 °F (1971)
Min Temperature 67 °F 68 °F 63 °F (1999)
Degree Days  
Heating Degree Days 0 0  
Month to date heating degree days 0 0  
Since 1 June heating degree days 0 0  
Since 1 July heating degree days 0 0  
Cooling Degree Days 10 10  
Month to date cooling degree days 168 160  
Year to date cooling degree days 1321 1228  
Since 1 June cooling degree days 168 160  
Growing Degree Days 24 (Base 50)    
Moisture  
Dew Point 64 °F    
Average Humidity 71    
Maximum Humidity 87    
Minimum Humidity 55    
Precipitation  
Precipitation 0.02 in 0.25 in 1.35 in (1990)
Month to date precipitation 2.34 3.58  
Year to date precipitation 49.38 55.49  
Snow  
Snow 0.00 in - - ()
Month to date snowfall 0.0  
Since 1 June snowfall 0.0  
Since 1 July snowfall 0.0  
Snow Depth 0.00 in    
Sea Level Pressure  
Sea Level Pressure 30.01 in    
Wind  
Wind Speed 8 mph (ESE)    
Max Wind Speed 16 mph    
Max Gust Speed 21 mph    
Visibility 10 miles    
Events Rain    
T = Trace of Precipitation, MM = Missing Value Source: NWS Daily Summary

Daily Weather History Graph

Daily Weather History Graph

Search for Another Location

Airport or City:

Trip Planner

Search our weather history database for the weather conditions in past years. The results will help you decide how hot, cold, wet, or windy it might be!

Date:

Astronomy

Jun. 16, 2013 Rise Set
Actual Time 5:41 AM HST 7:00 PM HST
Civil Twilight 5:16 AM HST 7:25 PM HST
Nautical Twilight 4:47 AM HST 7:54 PM HST
Astronomical Twilight 4:17 AM HST 8:24 PM HST
Moon 12:32 PM HST (6/16) 12:02 AM HST (6/16)
Length of Visible Light 14h 08m
Length of Day
13h 19m
First Quarter, 52% of the Moon is Illuminated
Jun 16
First Quarter
Jun 23
Full
Jun 29
Last Quarter
Jul 7
New
Jul 15
First Quarter

Hourly Weather History & Observations

Time (HST) Temp. Heat Index Dew Point Humidity Pressure Visibility Wind Dir Wind Speed Gust Speed Precip Events Conditions
12:53 AM 68.0 °F - 60.1 °F 76% 29.99 in 10.0 mi WSW 6.9 mph - N/A   Partly Cloudy
1:53 AM 68.0 °F - 60.1 °F 76% 29.98 in 10.0 mi SW 6.9 mph - N/A   Mostly Cloudy
2:53 AM 66.9 °F - 61.0 °F 81% 29.97 in 6.0 mi SSW 5.8 mph - 0.00 in Rain Rain
3:53 AM 66.9 °F - 63.0 °F 87% 29.97 in 10.0 mi WSW 8.1 mph - 0.02 in   Mostly Cloudy
4:53 AM 66.9 °F - 60.1 °F 79% 29.98 in 10.0 mi WSW 6.9 mph - N/A   Mostly Cloudy
5:53 AM 66.9 °F - 60.1 °F 79% 30.00 in 10.0 mi SW 5.8 mph - N/A   Overcast
6:53 AM 69.1 °F - 61.0 °F 75% 30.01 in 10.0 mi South 3.5 mph - N/A   Overcast
7:53 AM 75.0 °F - 63.0 °F 66% 30.03 in 10.0 mi WSW 4.6 mph - N/A   Scattered Clouds
8:53 AM 79.0 °F - 64.0 °F 60% 30.03 in 10.0 mi ENE 5.8 mph - N/A   Mostly Cloudy
9:53 AM 81.0 °F 82.5 °F 64.0 °F 56% 30.03 in 10.0 mi NNE 4.6 mph - N/A   Partly Cloudy
10:53 AM 82.0 °F 83.8 °F 64.9 °F 56% 30.02 in 10.0 mi ENE 10.4 mph - N/A   Scattered Clouds
11:53 AM 82.0 °F 83.4 °F 64.0 °F 54% 30.01 in 10.0 mi East 12.7 mph - N/A   Partly Cloudy
12:53 PM 81.0 °F 83.0 °F 66.0 °F 60% 29.99 in 10.0 mi ENE 12.7 mph 18.4 mph N/A   Mostly Cloudy
1:53 PM 80.1 °F 82.1 °F 66.0 °F 62% 29.99 in 10.0 mi East 11.5 mph - N/A   Mostly Cloudy
2:53 PM 78.1 °F - 66.9 °F 68% 29.98 in 10.0 mi East 11.5 mph - N/A   Mostly Cloudy
3:53 PM 78.1 °F - 66.9 °F 68% 29.98 in 10.0 mi East 11.5 mph - N/A   Mostly Cloudy
4:53 PM 78.1 °F - 66.9 °F 68% 29.98 in 10.0 mi East 13.8 mph - N/A   Mostly Cloudy
5:24 PM 77.0 °F - 66.9 °F 71% 29.99 in 10.0 mi ESE 12.7 mph - N/A   Mostly Cloudy
5:40 PM 77.0 °F - 66.9 °F 71% 29.99 in 10.0 mi East 11.5 mph - N/A   Overcast
5:53 PM 77.0 °F - 66.9 °F 71% 29.99 in 10.0 mi ESE 11.5 mph - N/A   Overcast
6:53 PM 75.9 °F - 66.0 °F 71% 30.01 in 10.0 mi East 9.2 mph - N/A   Overcast
7:53 PM 75.0 °F - 66.0 °F 73% 30.03 in 10.0 mi East 6.9 mph - N/A   Overcast
8:53 PM 75.0 °F - 66.9 °F 76% 30.03 in 10.0 mi East 8.1 mph - N/A   Overcast
9:53 PM 75.0 °F - 66.0 °F 73% 30.05 in 10.0 mi East 5.8 mph - 0.00 in   Overcast
10:53 PM 75.0 °F - 66.0 °F 73% 30.06 in 10.0 mi Calm Calm - N/A   Overcast
11:53 PM 75.0 °F - 66.9 °F 76% 30.04 in 10.0 mi East 5.8 mph - N/A   Overcast